Location: Saint-Palais-sur-Mer
(45.6429°N, 1.0859°W)
Time: 12:27:51
(UTC+02:00)

ISS - Visible Passes

Search period start: 29 May 2020 00:00
Search period end: 08 June 2020 00:00
Orbit: 417 x 420 km, 51.6° (Epoch: 29 May)

Date Brightness Start Highest point End Pass type
(mag) Time Alt. Az. Time Alt. Az. Time Alt. Az.
29 May -1.7 00:46:59 10° W 00:48:30 19° WSW 00:48:30 19° WSW visible
29 May -2.8 22:22:03 10° NW 22:25:19 45° NNE 22:28:34 10° E visible
29 May -3.0 23:58:55 10° WNW 00:02:05 37° SW 00:02:21 37° SSW visible
30 May -3.6 23:11:00 10° WNW 23:14:20 60° SSW 23:16:13 23° SE visible
31 May -3.7 22:23:09 10° WNW 22:26:32 88° NNE 22:29:54 10° ESE visible
01 Jun -1.6 00:00:50 10° W 00:02:55 15° SW 00:03:03 15° SW visible
01 Jun -2.2 23:12:27 10° W 23:15:15 24° SW 23:17:00 16° S visible
02 Jun -2.8 22:24:22 10° WNW 22:27:32 38° SW 22:30:40 10° SSE visible
04 Jun -1.4 22:26:10 10° W 22:28:16 16° SW 22:30:23 10° S visible
